伽利略0224星导航星座 (GSAT0224 (GALILEO 28))

导读

GALILEO 28是欧洲空间局(ESA)“伽利略”全球卫星导航系统的导航卫星,于2021年12月5日,在法属圭亚那航天发射场由联盟号火箭成功发射,它是伽利略第一代卫星第三批次的改进型号,卫星质量约715kg,设计寿命达12年,由德国OHB公司总承包建造,它的入轨进一步完善了伽利略导航星座,提升了系统服务能力与可靠性。

Basic Information
目录编号:
49810
目录名称:
GALILEO 28 (224)
国际标识:
2021-116B
轨道中心:
EARTH
卫星名称:
伽利略0224星
卫星全名:
伽利略0224星导航星座 (GSAT0224 (GALILEO 28))
卫星状态:
在轨 (已飞行1651 天)
发射日期:
2021-12-05 UTC
国别 :
(ESA)
星等 :
--
Orbit Information
数据来源 国际轨道数据 AOE轨道数据
星历时间 2026-06-11T20:44:49+0800
1天前
查看轨道信息
2026-06-13T00:00:00+0800
9小时前
查看轨道信息
半长轴 29600.112km 29600.101km
偏心率 0.0000988 0.0001084
轨道倾角 57.163° 57.163°
近地点辐角 155.490° 158.453°
升交点赤经 341.827° 341.796°
平近点角 205.703° 179.652°
近地点 23219.05km 23218.755km
远地点 23224.9km 23225.173km
周期 844.695分钟 844.694分钟
每日圈数 1.704758 1.704759
Detailed Information
平衡模式:
三轴稳定
覆盖范围:
全球
运营商:
欧盟空间计划局
运营商所在国:
法国大都会
使用方式:
暂无
Satellite Introduction
伽利略定位系统(Galileo)是一个全球导航卫星系统,于2016年投入使用由欧盟通过ESA创建,由欧盟空间计划局(EUSPA)运营。该系统有两个地面操控站,并且在高纬度地区提供比其他系统更好的定位服务。该卫星仍在工作。
2D Orbit Map
3D Orbit Map
Orbit Altitude Analysis Chart
Orbit Inclination Analysis Chart
Orbit Comprehensive Analysis Chart
View Comprehensive Chart